QPF
0.00 0.00 0.00 0.00 0.00 0.00 0.00 0.00 0.00 0.00 0.00 0.00 0.00 0.00 0.00 0.00 0.00 0.00 0.00 0.00 0.00 0.00 0.00 0.00 0.00 0.00 0.00 0.00 0.00 0.00 0.00 0.00 0.00 0.00 0.00 0.00 0.00 0.00 0.00 0.00 0.00 0.00 0.00 0.00 0.00
0.00 0.00 0.00 0.00 0.00 0.00 0.00 0.00 0.00 0.00 0.00 0.00 0.00 0.00 0.00 0.00 0.00 0.00 0.00 0.00 0.00 0.00 0.00 0.00 0.00 0.00 0.00 0.00 0.00 0.00 0.00 0.00 0.00 0.00 0.00 0.00 0.00 0.00 0.00 0.00 0.00 0.00 0.00 0.00 0.00
0.00 0.00 0.00 0.00 0.00 0.00 0.00 0.00 0.00 0.00 0.00 0.00 0.00 0.00 0.00 0.00 0.00 0.00 0.00 0.00 0.00 0.00 0.00 0.00 0.00 0.00 0.00 0.00 0.00 0.00 0.00 0.00 0.00 0.00 0.00 0.00 0.00 0.00 0.00 0.00 0.00 0.00 0.00 0.00 0.00
0.00 0.00 0.00 0.00 0.00 0.00 0.00 0.00 0.00 0.00 0.00 0.00 0.00 0.00 0.00 0.00 0.00 0.00 0.00 0.00 0.00 0.00 0.00 0.00 0.00 0.00 0.00 0.00 0.00 0.00 0.00 0.00 0.00 0.00 0.00 0.00 0.00 0.00 0.00 0.00 0.00 0.00 0.00 0.00 0.00
0.00 0.00 0.00 0.00 0.00 0.00 0.00 0.00 0.00 0.00 0.00 0.00 0.00 0.00 0.00 0.00 0.00 0.00 0.00 0.00 0.00 0.00 0.00 0.00 0.00 0.00 0.00 0.00 0.00 0.00 0.00 0.00 0.00 0.00 0.00 0.00 0.00 0.00 0.00 0.00 0.00 0.00 0.00 0.00 0.00
0.00 0.00 0.00 0.00 0.00 0.00 0.00 0.00 0.00 0.00 0.00 0.00 0.00 0.00 0.00 0.00 0.00 0.00 0.00 0.00 0.00 0.00 0.00 0.00 0.00 0.00 0.00 0.00 0.00 0.00 0.00 0.00 0.00 0.00 0.00 0.00 0.00 0.00 0.00 0.00 0.00 0.00 0.00 0.00 0.00
0.00 0.00 0.00 0.00 0.00 0.00 0.00 0.00 0.00 0.00 0.00 0.00 0.00 0.00 0.00 0.00 0.00 0.00 0.00 0.00 0.00 0.00 0.00 0.00 0.00 0.00 0.00 0.00 0.00 0.00 0.00 0.00 0.00 0.00 0.00 0.00 0.00 0.00 0.00 0.00 0.00 0.00 0.00 0.00 0.00
0.00 0.00 0.00 0.00 0.00 0.00 0.00 0.00 0.00 0.00 0.00 0.00 0.00 0.00 0.00 0.00 0.00 0.00 0.00 0.00 0.00 0.00 0.00 0.00 0.00 0.00 0.00 0.00 0.00 0.00 0.00 0.00 0.00 0.00 0.00 0.00 0.00 0.00 0.00 0.00 0.00 0.00 0.00 0.00 0.00
0.00 0.00 0.00 0.00 0.00 0.00 0.00 0.00 0.00 0.00 0.00 0.00 0.00 0.00 0.00 0.00 0.00 0.00 0.00 0.00 0.00 0.00 0.00 0.00 0.00 0.00 0.00 0.00 0.00 0.00 0.00 0.00 0.00 0.00 0.00 0.00 0.00 0.00 0.00 0.00 0.00 0.00 0.00 0.00 0.00
0.00 0.00 0.00 0.00 0.00 0.00 0.00 0.00 0.00 0.00 0.00 0.00 0.00 0.00 0.00 0.00 0.00 0.00 0.00 0.00 0.00 0.00 0.00 0.00 0.00 0.00 0.00 0.00 0.00 0.00 0.00 0.00 0.00 0.00 0.00 0.00 0.00 0.00 0.00 0.00 0.00 0.00 0.00 0.00 0.00
0.00 0.00 0.00 0.00 0.00 0.00 0.00 0.00 0.00 0.00 0.00 0.00 0.00 0.00 0.00 0.00 0.00 0.00 0.00 0.00 0.00 0.00 0.00 0.00 0.00 0.00 0.00 0.00 0.00 0.00 0.00 0.00 0.00 0.00 0.00 0.00 0.00 0.00 0.00 0.00 0.00 0.00 0.00 0.00 0.00
0.00 0.00 0.00 0.00 0.00 0.00 0.00 0.00 0.00 0.00 0.00 0.00 0.00 0.00 0.00 0.00 0.00 0.00 0.00 0.00 0.00 0.00 0.00 0.00 0.00 0.00 0.00 0.00 0.00 0.00 0.00 0.00 0.00 0.00 0.00 0.00 0.00 0.00 0.00 0.00 0.00 0.00 0.00 0.00 0.00
0.00 0.00 0.00 0.00 0.00 0.00 0.00 0.00 0.00 0.00 0.00 0.00 0.00 0.00 0.00 0.00 0.00 0.00 0.00 0.00 0.00 0.00 0.00 0.00 0.00 0.00 0.00 0.00 0.00 0.00 0.00 0.00 0.00 0.00 0.00 0.00 0.00 0.00 0.00 0.00 0.00 0.00 0.00 0.00 0.00
0.00 0.00 0.00 0.00 0.00 0.00 0.00 0.00 0.00 0.00 0.00 0.00 0.00 0.00 0.00 0.00 0.00 0.00 0.00 0.00 0.00 0.00 0.00 0.00 0.00 0.00 0.00 0.00 0.00 0.00 0.00 0.00 0.00 0.00 0.00 0.00 0.00 0.00 0.00 0.00 0.00 0.00 0.00 0.00 0.00
0.00 0.00 0.00 0.00 0.00 0.00 0.00 0.00 0.00 0.00 0.00 0.00 0.00 0.00 0.00 0.00 0.00 0.00 0.00 0.00 0.00 0.00 0.00 0.00 0.00 0.00 0.00 0.00 0.00 0.00 0.00 0.00 0.00 0.00 0.00 0.00 0.00 0.00 0.00 0.00 0.00 0.00 0.00 0.00 0.00
0.00 0.00 0.00 0.00 0.00 0.00 0.00 0.00 0.00 0.00 0.00 0.00 0.00 0.00 0.00 0.00 0.00 0.00 0.00 0.00 0.00 0.00 0.00 0.00 0.00 0.00 0.00 0.00 0.00 0.00 0.00 0.00 0.00 0.00 0.00 0.00 0.00 0.00 0.00 0.00 0.00 0.00 0.00 0.00 0.00
0.00 0.00 0.00 0.00 0.00 0.00 0.00 0.00 0.00 0.00 0.00 0.00 0.00 0.00 0.00 0.00 0.00 0.00 0.00 0.00 0.01 0.01 0.00 0.00 0.00 0.00 0.00 0.00 0.00 0.00 0.00 0.00 0.00 0.00 0.00 0.00 0.00 0.00 0.00 0.00 0.00 0.00 0.00 0.00 0.00
0.00 0.00 0.00 0.00 0.00 0.00 0.00 0.00 0.00 0.00 0.00 0.00 0.00 0.00 0.00 0.00 0.00 0.00 0.00 0.00 0.02 0.01 0.01 0.01 0.00 0.01 0.00 0.00 0.00 0.00 0.00 0.00 0.00 0.00 0.00 0.00 0.00 0.00 0.00 0.00 0.00 0.00 0.00 0.00 0.00
0.00 0.00 0.00 0.00 0.00 0.00 0.00 0.00 0.00 0.00 0.00 0.00 0.00 0.00 0.00 0.00 0.00 0.00 0.00 0.00 0.01 0.02 0.01 0.01 0.01 0.01 0.01 0.01 0.01 0.00 0.00 0.00 0.00 0.00 0.00 0.00 0.00 0.00 0.00 0.00 0.00 0.00 0.00 0.00 0.00
0.00 0.00 0.00 0.00 0.00 0.00 0.00 0.00 0.00 0.00 0.00 0.00 0.00 0.00 0.00 0.00 0.00 0.00 0.00 0.00 0.00 0.00 0.00 0.01 0.00 0.00 0.01 0.02 0.01 0.01 0.00 0.00 0.00 0.00 0.00 0.00 0.00 0.00 0.00 0.00 0.00 0.00 0.00 0.00 0.00
0.00 0.00 0.00 0.00 0.00 0.00 0.00 0.00 0.00 0.00 0.00 0.00 0.00 0.00 0.00 0.00 0.00 0.00 0.00 0.00 0.00 0.00 0.00 0.01 0.00 0.00 0.00 0.00 0.01 0.01 0.00 0.00 0.00 0.00 0.00 0.00 0.00 0.00 0.00 0.00 0.00 0.00 0.00 0.00 0.00
0.00 0.00 0.00 0.00 0.00 0.00 0.00 0.00 0.00 0.00 0.00 0.00 0.00 0.00 0.00 0.00 0.00 0.00 0.00 0.00 0.00 0.00 0.00 0.02 0.01 0.00 0.00 0.00 0.00 0.00 0.00 0.00 0.00 0.00 0.00 0.00 0.00 0.00 0.00 0.00 0.00 0.00 0.00 0.00 0.00
0.00 0.00 0.00 0.00 0.00 0.00 0.00 0.00 0.00 0.00 0.00 0.00 0.00 0.01 0.01 0.00 0.01 0.00 0.00 0.00 0.00 0.00 0.01 0.02 0.01 0.00 0.00 0.00 0.00 0.00 0.00 0.00 0.00 0.00 0.00 0.00 0.00 0.00 0.00 0.00 0.00 0.00 0.00 0.00 0.00
0.00 0.00 0.00 0.00 0.00 0.00 0.00 0.00 0.00 0.00 0.00 0.01 0.00 0.00 0.00 0.00 0.00 0.00 0.00 0.00 0.00 0.00 0.03 0.04 0.00 0.00 0.00 0.00 0.00 0.00 0.00 0.00 0.00 0.00 0.00 0.00 0.00 0.00 0.00 0.00 0.00 0.00 0.00 0.00 0.00
0.00 0.00 0.00 0.00 0.00 0.00 0.00 0.00 0.00 0.00 0.00 0.00 0.00 0.00 0.02 0.01 0.01 0.00 0.00 0.00 0.00 0.00 0.02 0.02 0.00 0.00 0.00 0.00 0.00 0.00 0.00 0.00 0.00 0.00 0.00 0.00 0.00 0.00 0.00 0.00 0.00 0.00 0.00 0.00 0.00
0.00 0.00 0.00 0.00 0.00 0.00 0.00 0.00 0.00 0.00 0.00 0.00 0.01 0.01 0.01 0.01 0.01 0.00 0.00 0.01 0.00 0.00 0.01 0.00 0.00 0.00 0.00 0.00 0.00 0.00 0.00 0.00 0.00 0.00 0.00 0.00 0.00 0.00 0.00 0.00 0.00 0.00 0.00 0.00 0.00
0.00 0.00 0.00 0.00 0.00 0.00 0.00 0.00 0.00 0.00 0.00 0.00 0.00 0.01 0.00 0.00 0.00 0.00 0.00 0.00 0.00 0.01 0.00 0.00 0.01 0.01 0.00 0.00 0.00 0.00 0.00 0.00 0.00 0.00 0.00 0.00 0.00 0.00 0.00 0.00 0.00 0.00 0.00 0.00 0.00
MSLP
1021.92 1021.56 1021.27 1020.98 1020.60 1020.20 1019.84 1019.58 1019.32 1019.01 1018.69 1018.41 1018.03 1017.62 1017.05 1016.43 1015.69 1015.24 1014.42 1013.46 1013.45 1012.86 1012.49 1012.01 1011.65 1011.60 1011.72 1011.06 1010.78 1010.52 1009.86 1008.39 1007.62 1007.29 1006.55 1005.99 1005.41 1004.91 1004.72 1004.36 1003.95 1003.47 1003.42 1003.82 1004.23
1021.94 1021.55 1021.24 1020.87 1020.50 1020.13 1019.76 1019.37 1019.05 1018.72 1018.46 1018.24 1017.93 1017.53 1017.08 1016.63 1015.99 1014.81 1013.90 1013.57 1013.43 1012.91 1012.61 1011.96 1011.61 1011.34 1011.29 1010.73 1010.27 1009.71 1008.38 1007.37 1006.72 1006.53 1006.27 1005.91 1005.56 1005.17 1004.96 1004.61 1004.08 1003.72 1004.08 1004.49 1004.51
1021.92 1021.44 1021.00 1020.64 1020.31 1019.99 1019.61 1019.20 1018.79 1018.46 1018.19 1017.94 1017.57 1017.22 1016.78 1016.52 1015.66 1013.61 1013.08 1013.48 1013.17 1012.53 1012.29 1011.98 1011.68 1011.36 1010.88 1010.45 1009.51 1008.76 1007.06 1006.55 1005.97 1006.16 1006.32 1005.87 1005.47 1005.52 1005.10 1004.32 1003.96 1003.97 1004.36 1004.44 1004.38
1021.84 1021.35 1020.85 1020.41 1020.03 1019.66 1019.25 1018.89 1018.57 1018.20 1017.94 1017.66 1017.29 1016.93 1016.71 1016.35 1015.23 1013.71 1013.44 1013.22 1013.16 1012.51 1012.13 1011.96 1011.72 1011.07 1010.61 1009.52 1009.04 1008.45 1007.14 1006.60 1006.12 1006.48 1006.37 1005.82 1005.60 1004.84 1004.80 1004.05 1004.11 1004.22 1004.55 1004.41 1004.46
1021.65 1021.16 1020.60 1020.08 1019.63 1019.23 1018.80 1018.46 1018.21 1017.93 1017.71 1017.48 1017.08 1016.93 1016.54 1015.75 1014.19 1013.43 1013.31 1013.06 1012.84 1012.49 1012.29 1012.04 1011.63 1010.96 1009.75 1009.23 1009.08 1007.73 1006.69 1006.67 1006.52 1006.58 1006.46 1006.22 1004.83 1004.87 1003.88 1003.78 1003.85 1004.07 1003.97 1003.86 1003.95
1021.54 1021.02 1020.48 1019.90 1019.40 1018.91 1018.33 1017.86 1017.78 1017.64 1017.27 1016.94 1016.85 1016.98 1016.66 1015.00 1013.35 1013.21 1013.07 1012.78 1012.61 1012.60 1012.44 1012.24 1011.56 1010.99 1010.32 1009.38 1008.43 1007.08 1007.09 1006.67 1006.42 1006.38 1006.41 1006.28 1004.76 1005.08 1002.88 1004.07 1003.63 1003.45 1003.36 1003.53 1003.48
1021.43 1020.99 1020.46 1019.83 1019.25 1018.73 1018.11 1017.44 1016.91 1016.80 1016.61 1016.44 1016.52 1016.70 1016.34 1014.17 1013.16 1013.11 1013.20 1012.84 1012.54 1012.45 1012.09 1012.01 1011.76 1011.49 1010.53 1009.66 1008.53 1007.81 1007.32 1006.83 1006.06 1006.03 1005.74 1006.23 1005.08 1002.43 1003.61 1003.40 1003.47 1002.88 1002.99 1002.49 1002.33
1021.29 1020.83 1020.29 1019.67 1018.92 1018.29 1017.63 1016.90 1016.42 1016.33 1016.16 1016.27 1016.37 1016.36 1015.01 1013.35 1013.19 1013.02 1012.60 1012.30 1012.39 1012.43 1011.91 1011.69 1011.94 1011.63 1010.75 1009.86 1008.71 1007.98 1007.49 1006.21 1004.82 1005.72 1005.21 1005.89 1003.34 1000.53 1002.67 1002.69 1002.07 1001.94 1001.89 1001.79 1001.58
1021.13 1020.70 1020.21 1019.67 1018.96 1018.13 1017.37 1016.63 1016.08 1015.86 1016.01 1016.24 1016.42 1016.10 1013.88 1012.92 1012.68 1011.99 1012.18 1011.81 1011.57 1011.80 1011.64 1011.43 1011.52 1011.02 1010.58 1009.91 1009.05 1007.54 1005.43 1004.70 1004.58 1004.35 1005.09 1004.96 1001.76 1001.50 1001.97 1001.83 1001.11 1001.12 1001.23 1001.22 1001.02
1020.97 1020.50 1020.04 1019.56 1018.84 1017.87 1016.92 1015.98 1015.77 1016.02 1016.32 1016.29 1016.18 1016.16 1014.00 1012.89 1012.28 1011.82 1011.41 1011.56 1011.37 1011.25 1011.02 1011.25 1010.83 1010.02 1009.61 1008.91 1006.63 1006.45 1005.99 1005.22 1004.23 1004.25 1004.57 1003.94 1001.38 1002.07 1001.74 1001.61 1001.07 1001.12 1001.15 1000.90 1000.64
1020.74 1020.23 1019.76 1019.27 1018.63 1017.83 1016.71 1015.74 1016.28 1016.15 1015.93 1015.74 1015.52 1015.32 1014.06 1013.15 1012.21 1011.46 1011.02 1011.08 1011.06 1010.94 1010.36 1010.61 1010.36 1008.73 1008.83 1008.57 1008.09 1007.29 1006.50 1005.46 1004.97 1004.41 1004.02 1003.09 1001.73 1001.75 1001.95 1001.56 1001.06 1000.83 1000.69 1000.57 1000.18
1020.63 1019.92 1019.35 1018.88 1018.34 1017.76 1017.30 1016.87 1017.26 1017.76 1016.53 1015.14 1014.83 1014.72 1013.81 1013.47 1012.47 1011.04 1011.04 1011.07 1010.83 1010.49 1010.46 1010.44 1009.39 1009.30 1009.37 1008.62 1008.20 1007.77 1007.14 1006.42 1005.89 1005.11 1004.60 1003.39 1002.11 1002.05 1001.82 1001.18 1000.90 1000.58 1000.19 1000.11 999.68
1020.49 1019.86 1019.21 1018.68 1018.22 1017.83 1017.55 1017.19 1017.41 1017.68 1017.23 1015.07 1014.11 1013.72 1013.07 1012.84 1011.90 1010.96 1010.92 1010.77 1010.53 1010.31 1010.19 1009.49 1008.49 1008.74 1008.56 1008.19 1007.77 1007.25 1006.88 1006.58 1006.20 1005.57 1004.93 1004.21 1002.35 1001.65 1001.00 1000.84 1000.42 1000.01 999.76 999.32 998.85
1020.15 1019.61 1019.04 1018.54 1018.28 1018.13 1017.54 1017.36 1017.60 1017.68 1016.73 1014.84 1013.61 1013.16 1012.77 1012.22 1011.79 1010.82 1010.51 1010.66 1010.40 1010.06 1009.79 1008.97 1008.30 1008.32 1008.00 1007.58 1007.42 1006.66 1006.84 1006.38 1006.20 1006.07 1004.56 1004.12 1001.31 1000.32 1000.06 999.71 999.57 999.38 999.03 998.53 998.32
1019.81 1019.09 1018.68 1018.67 1018.68 1018.09 1017.57 1017.44 1017.37 1017.42 1016.20 1014.59 1013.49 1012.94 1012.77 1012.71 1012.10 1010.61 1010.25 1010.15 1009.98 1009.90 1010.05 1008.33 1008.24 1007.86 1007.38 1007.07 1006.87 1006.48 1006.81 1006.54 1006.43 1005.93 1005.37 1004.04 1002.94 999.16 999.53 998.25 998.19 998.22 998.09 997.81 997.38
1019.16 1018.43 1017.99 1018.35 1018.64 1017.81 1017.52 1017.38 1017.18 1016.95 1015.47 1014.42 1013.80 1013.31 1012.87 1012.32 1011.65 1010.90 1010.39 1010.15 1009.85 1009.75 1009.47 1008.26 1008.08 1007.89 1007.20 1006.90 1006.71 1006.47 1006.18 1006.36 1006.58 1006.08 1004.55 1003.76 1003.31 997.97 998.13 997.44 997.40 997.21 996.94 996.72 996.52
1018.59 1017.87 1017.72 1017.78 1017.69 1017.55 1017.30 1017.02 1017.06 1016.27 1015.72 1014.90 1014.27 1013.76 1013.25 1012.57 1011.99 1011.57 1010.98 1010.40 1010.33 1010.44 1009.33 1008.37 1007.27 1006.91 1006.97 1006.70 1006.44 1006.40 1006.04 1005.29 1005.50 1004.90 1003.30 1003.12 1002.73 998.51 997.27 997.68 997.38 996.83 996.49 996.28 995.96
1018.28 1017.82 1017.72 1017.57 1017.38 1017.34 1017.03 1016.81 1016.53 1016.17 1015.66 1015.22 1014.72 1014.07 1013.50 1012.99 1012.39 1012.03 1011.51 1010.89 1010.74 1011.12 1010.51 1008.76 1007.42 1006.92 1006.45 1006.03 1005.71 1005.60 1005.36 1004.37 1003.51 1002.96 1002.24 1003.20 1000.63 998.27 997.68 997.15 997.11 996.63 996.29 996.02 995.64
1018.07 1017.86 1017.62 1017.20 1017.14 1017.10 1016.85 1016.54 1016.37 1016.32 1015.94 1015.48 1014.90 1014.32 1013.90 1013.70 1013.50 1012.60 1011.94 1011.43 1010.89 1011.06 1011.15 1010.06 1008.02 1007.25 1006.62 1006.24 1005.72 1005.28 1004.84 1004.56 1004.12 1003.06 1001.94 1001.13 999.74 998.50 998.05 997.11 996.83 996.53 996.24 995.76 995.54
1018.73 1018.12 1017.52 1017.25 1017.14 1016.88 1016.87 1016.85 1016.58 1016.37 1016.05 1015.71 1015.36 1015.04 1014.45 1013.95 1013.80 1013.18 1012.24 1011.35 1010.95 1010.87 1010.89 1010.34 1009.28 1007.64 1007.40 1006.44 1005.86 1005.54 1004.57 1004.64 1004.22 1002.54 1001.22 999.89 999.07 997.40 997.12 996.86 997.06 996.69 996.37 995.86 995.60
1018.71 1018.00 1017.33 1017.15 1017.00 1017.06 1017.39 1017.32 1016.91 1016.31 1016.24 1015.91 1015.46 1015.21 1014.93 1014.53 1014.01 1013.42 1012.42 1011.38 1011.12 1010.78 1010.70 1010.20 1009.85 1008.31 1007.64 1007.02 1007.17 1006.38 1005.54 1004.23 1003.75 1002.79 1001.19 999.70 997.99 997.42 997.53 997.63 997.50 997.30 996.83 996.42 996.18
1019.47 1018.25 1017.54 1017.18 1017.49 1018.41 1018.02 1017.91 1017.56 1016.38 1016.09 1015.97 1015.62 1015.33 1014.99 1014.76 1014.14 1013.49 1012.49 1011.77 1011.23 1011.09 1010.50 1010.49 1010.12 1008.91 1007.63 1007.12 1006.96 1006.69 1005.94 1005.21 1003.84 1003.00 1002.34 1001.30 998.91 998.09 997.93 998.01 998.02 997.52 997.03 996.66 997.01
1020.36 1019.37 1017.85 1017.46 1018.10 1018.48 1018.38 1017.96 1017.45 1016.80 1016.25 1016.06 1015.64 1015.54 1015.28 1015.04 1014.65 1013.49 1012.63 1011.75 1011.46 1011.19 1010.73 1010.72 1010.23 1009.02 1007.42 1007.25 1006.84 1006.53 1006.17 1005.84 1005.29 1004.42 1002.85 1001.65 999.08 998.21 997.92 997.75 998.15 997.60 996.98 996.71 997.11
1020.81 1019.93 1018.94 1018.85 1019.40 1019.20 1018.75 1017.81 1017.15 1016.57 1016.24 1016.19 1015.92 1015.70 1015.35 1015.14 1014.62 1013.67 1012.66 1011.97 1011.56 1011.41 1011.15 1011.04 1010.46 1009.83 1008.66 1007.98 1008.01 1007.13 1006.46 1006.15 1005.79 1004.48 1003.21 1002.04 1000.19 998.69 998.68 998.73 998.24 997.51 997.16 996.71 997.15
1021.39 1021.27 1021.19 1020.06 1019.64 1019.59 1019.39 1018.34 1017.39 1016.76 1016.62 1016.24 1015.70 1015.53 1015.46 1014.62 1014.12 1013.02 1012.16 1011.63 1011.54 1011.38 1011.28 1011.17 1010.36 1009.91 1009.31 1008.70 1008.10 1007.30 1006.47 1005.97 1005.43 1004.93 1003.93 1002.76 1000.80 999.94 999.96 999.62 998.56 997.84 997.37 996.97 997.17
1022.14 1022.13 1021.54 1020.82 1020.25 1019.71 1018.97 1018.03 1017.43 1016.98 1016.92 1015.95 1015.45 1015.11 1015.03 1014.35 1013.88 1012.33 1011.99 1011.65 1011.34 1011.36 1011.30 1011.26 1010.27 1009.90 1009.39 1008.45 1007.70 1006.57 1005.73 1005.26 1004.89 1004.53 1003.96 1003.44 1001.15 1001.05 1000.46 999.88 998.69 997.83 997.23 996.85 996.58
1022.38 1022.48 1022.22 1020.92 1020.37 1019.88 1018.89 1018.26 1017.72 1017.57 1016.33 1015.79 1015.39 1014.87 1014.08 1013.19 1012.60 1011.61 1011.26 1010.74 1011.03 1011.11 1011.25 1011.03 1010.18 1009.75 1008.52 1008.11 1007.27 1005.82 1004.23 1003.90 1003.79 1003.46 1003.21 1002.25 1001.04 1000.77 1000.06 999.36 998.47 997.61 997.19 996.65 996.33
Thickness
5589 5592 5595 5597 5601 5604 5608 5610 5613 5617 5620 5624 5628 5633 5639 5646 5654 5660 5669 5680 5679 5687 5694 5699 5704 5704 5704 5708 5715 5718 5703 5713 5729 5731 5748 5764 5764 5779 5786 5786 5794 5804 5807 5813 5818
5586 5589 5591 5594 5598 5601 5603 5607 5610 5613 5616 5619 5623 5627 5631 5637 5643 5652 5665 5667 5670 5677 5681 5686 5689 5694 5692 5699 5704 5706 5706 5721 5749 5750 5748 5758 5761 5766 5765 5770 5779 5792 5800 5804 5809
5582 5586 5589 5592 5594 5596 5600 5603 5606 5609 5612 5615 5619 5621 5626 5629 5637 5655 5660 5659 5663 5671 5674 5679 5682 5682 5682 5690 5699 5704 5708 5737 5746 5749 5747 5749 5753 5759 5755 5758 5777 5780 5783 5794 5799
5579 5583 5586 5589 5591 5594 5596 5599 5601 5604 5607 5610 5613 5617 5618 5623 5639 5647 5650 5653 5653 5661 5665 5666 5668 5669 5671 5679 5695 5689 5714 5725 5738 5733 5733 5735 5750 5750 5754 5766 5777 5780 5781 5786 5789
5576 5579 5583 5587 5590 5593 5596 5598 5599 5601 5602 5603 5606 5606 5610 5619 5630 5640 5641 5644 5646 5650 5651 5654 5655 5660 5667 5676 5679 5687 5710 5713 5724 5720 5725 5729 5739 5744 5754 5771 5776 5776 5779 5784 5788
5573 5576 5580 5584 5587 5591 5595 5598 5597 5598 5600 5601 5602 5600 5601 5614 5627 5629 5632 5636 5639 5639 5640 5642 5647 5651 5651 5661 5668 5695 5694 5697 5707 5709 5712 5709 5730 5731 5763 5761 5767 5771 5775 5780 5786
5570 5572 5576 5580 5584 5587 5590 5595 5597 5597 5597 5598 5596 5593 5593 5611 5618 5619 5618 5621 5626 5629 5631 5631 5634 5633 5642 5645 5665 5670 5664 5675 5690 5699 5702 5701 5700 5732 5752 5759 5751 5765 5771 5783 5789
5567 5569 5572 5575 5579 5583 5586 5590 5593 5591 5590 5588 5586 5585 5594 5607 5607 5609 5612 5613 5612 5612 5618 5620 5618 5619 5626 5638 5646 5647 5650 5651 5691 5687 5698 5685 5693 5756 5753 5750 5755 5763 5771 5777 5786
5562 5564 5566 5568 5572 5577 5580 5584 5586 5585 5581 5577 5575 5575 5591 5598 5599 5604 5602 5602 5605 5603 5604 5606 5605 5610 5614 5614 5616 5634 5651 5660 5673 5690 5680 5673 5705 5735 5743 5743 5751 5760 5764 5768 5777
5558 5560 5562 5563 5566 5572 5577 5582 5579 5574 5570 5566 5565 5563 5578 5579 5584 5587 5591 5589 5587 5588 5591 5586 5590 5599 5606 5604 5620 5630 5630 5643 5652 5669 5663 5669 5698 5710 5727 5731 5740 5747 5751 5758 5767
5556 5558 5559 5560 5562 5566 5574 5577 5570 5568 5563 5563 5561 5554 5560 5565 5569 5569 5572 5570 5568 5567 5568 5567 5569 5590 5589 5593 5607 5608 5612 5627 5638 5654 5656 5666 5687 5698 5707 5717 5726 5734 5743 5751 5760
5553 5555 5557 5558 5559 5561 5562 5562 5554 5545 5551 5558 5553 5545 5548 5546 5545 5555 5553 5544 5540 5536 5535 5535 5551 5559 5559 5570 5578 5583 5588 5599 5614 5632 5636 5651 5665 5680 5691 5705 5715 5724 5734 5742 5754
5550 5550 5553 5554 5554 5553 5551 5549 5539 5533 5532 5544 5546 5541 5540 5536 5534 5537 5535 5527 5521 5516 5515 5518 5539 5535 5537 5545 5556 5567 5572 5585 5592 5610 5623 5628 5645 5666 5690 5698 5710 5720 5731 5742 5752
5549 5549 5549 5550 5549 5543 5545 5537 5529 5523 5526 5536 5537 5532 5531 5527 5520 5527 5523 5515 5512 5508 5511 5517 5528 5518 5521 5524 5536 5542 5562 5574 5582 5587 5599 5624 5631 5664 5685 5693 5704 5715 5725 5738 5746
5548 5549 5547 5542 5537 5541 5537 5530 5524 5520 5532 5530 5527 5529 5521 5509 5505 5516 5516 5510 5505 5505 5502 5517 5512 5508 5509 5515 5527 5531 5544 5556 5564 5573 5582 5610 5601 5672 5684 5695 5706 5715 5725 5732 5741
5550 5550 5548 5541 5532 5534 5529 5524 5520 5521 5522 5519 5516 5510 5509 5506 5505 5505 5504 5504 5504 5501 5504 5510 5512 5505 5510 5518 5520 5531 5538 5546 5551 5559 5564 5604 5594 5672 5683 5700 5706 5716 5724 5732 5740
5551 5550 5546 5539 5541 5528 5524 5523 5521 5519 5514 5511 5505 5504 5500 5495 5493 5490 5489 5491 5486 5479 5497 5505 5509 5513 5511 5509 5518 5519 5521 5531 5530 5540 5574 5601 5588 5664 5691 5690 5696 5705 5717 5728 5736
5549 5547 5541 5535 5530 5524 5522 5522 5510 5508 5505 5505 5498 5498 5490 5487 5488 5483 5481 5483 5485 5476 5474 5487 5493 5506 5513 5511 5516 5519 5523 5535 5534 5554 5589 5581 5600 5657 5683 5692 5692 5702 5713 5722 5728
5547 5543 5538 5534 5527 5520 5522 5516 5507 5499 5499 5494 5493 5487 5483 5478 5472 5474 5475 5476 5483 5478 5466 5469 5498 5505 5506 5507 5517 5519 5516 5541 5538 5559 5576 5591 5631 5656 5669 5681 5688 5696 5705 5715 5726
5536 5536 5536 5527 5522 5519 5516 5504 5499 5495 5491 5486 5472 5473 5467 5472 5465 5466 5469 5479 5479 5480 5478 5479 5473 5500 5494 5506 5513 5516 5535 5522 5532 5546 5563 5602 5617 5643 5656 5674 5680 5688 5698 5712 5724
5531 5540 5531 5524 5518 5516 5502 5496 5490 5490 5484 5478 5471 5464 5461 5457 5462 5462 5468 5478 5477 5479 5479 5481 5478 5494 5497 5497 5480 5500 5509 5533 5541 5556 5568 5589 5621 5644 5646 5658 5663 5677 5693 5705 5712
5518 5536 5524 5519 5516 5479 5492 5483 5478 5484 5480 5471 5467 5463 5460 5458 5459 5461 5464 5470 5475 5474 5476 5476 5476 5482 5496 5503 5504 5503 5511 5521 5532 5547 5558 5568 5599 5632 5638 5651 5658 5671 5686 5700 5699
5507 5507 5515 5514 5501 5490 5481 5478 5476 5473 5472 5465 5461 5459 5459 5452 5444 5458 5464 5471 5471 5471 5473 5473 5476 5484 5502 5504 5505 5505 5512 5513 5518 5529 5541 5558 5593 5626 5635 5650 5655 5667 5684 5696 5696
5503 5509 5505 5496 5479 5477 5473 5478 5476 5475 5470 5462 5454 5453 5450 5443 5452 5447 5457 5464 5465 5465 5468 5467 5473 5478 5486 5493 5489 5496 5504 5509 5507 5522 5541 5554 5581 5610 5620 5628 5645 5663 5677 5691 5694
5487 5487 5472 5489 5482 5468 5461 5466 5468 5469 5461 5458 5454 5448 5445 5448 5447 5454 5464 5464 5461 5461 5460 5461 5464 5475 5478 5482 5486 5492 5499 5505 5506 5515 5520 5548 5577 5596 5604 5615 5637 5656 5670 5682 5690
5479 5473 5469 5467 5465 5465 5465 5468 5468 5466 5454 5459 5457 5458 5450 5444 5447 5454 5460 5453 5450 5449 5448 5445 5457 5467 5464 5483 5487 5493 5504 5507 5510 5514 5518 5530 5565 5584 5596 5610 5631 5650 5667 5678 5692
5465 5458 5457 5465 5463 5460 5466 5465 5460 5455 5458 5459 5457 5451 5453 5465 5465 5469 5466 5465 5452 5449 5443 5443 5456 5461 5474 5482 5486 5493 5514 5515 5516 5521 5523 5531 5569 5581 5591 5609 5628 5646 5660 5675 5689